STARLINK-32957, 63124

Orbit data source: Space-Track

STARLINK-32957, 63124 is a payload satellite owned by SpaceX/Seattle (US) in LEO that was launched on Thu, 27 Feb 2025 UTC via an FALCON 9 launch vehicle from the Air Force Eastern Test Range (AFETR). Payload-class satellites include a variety of spacecraft equipped with specific instruments for various scientific and technological missions. These include communications satellites like Starlink; space stations such as the ISS; scientific satellites like the Hubble; Earth observation satellites from companies like Planet Labs, Umbra, and HawkEye 360; GPS; miniature CubeSats for education and research; and military/defense satellites.

Loading next visibility...
Identifier
63124, 2025-039W
Orbit
LEO
Country
Flag of USUS
Related business
Manufacturer
SpaceX/Seattle
Mission
Operational Commercial Communications
Bus & Motor
STARLINK V2M, Unknown motor
Mass
730 kg wet, ~700 kg dry
Launch date (UTC)
2025-02-27 (10 months ago)
Launch vehicle
FALCON 9
Launch site
Air Force Eastern Test Range (AFETR)
Object type
Payload
Rocket body
Debris
Shape & HBR
Box + 2 Pan, 17.7 m
Radar Cross Section
33.884 m², Large (>1 m²)

Expand to show TLE details & history
Last TLE update: 10 hours ago

TLE from 10 hours ago
0 STARLINK-32957
1 63124U 25039W   25346.91337693  .00021898  00000-0  80287-3 0  9992
2 63124  43.0008 143.0062 0001914 271.1709  88.8924 15.27580583 44798
Epoch: 2025-12-12T21:55Z
TLE epoch observation values (Epoch: 2025-12-12T21:55:15.766Z)
Latitude
0.00001°
Longitude
92.34234°
Altitude
482.798 km
Speed
7.626 km/s
True Right ascension
09h 32m 01s
True Declination
0° 00' 00"
Sunlit
Object was in full shadow at epoch
Visualization orbit readout
Latitude
Unknown
Longitude
Unknown
Altitude
Unknown
Speed
Unknown
Apparent Right ascension
Unknown
Apparent Declination
Unknown
Sunlit
N/A
Visualization observer readout
Local Sidereal Time
06:08:13
Azimuth
Unknown
Elevation
Unknown
Doppler factor
Unknown
Orbital elements
Apogee altitude
486.306 km
Perigee altitude
483.679 km
Semi-major axis
6,863.129 km
Eccentricity
0.00019
Inclination
43.0008°
RAAN
143.0062°
Arg. of periapsis
271.1709°
True anomaly
88.91433°
Mean anomaly
88.8924°
Eccentric anomaly
88.90336°
Mean motion
3.81733 °/min
Orbital period
94.31 mins
BSTAR
0.00080287
Loading maneuver chart data...
Computing Atmospheric mass density...
Loading historical data...
Loading historical data...
Loading historical data...
Loading historical data...
Loading historical data...
Loading historical data...
Loading historical data...

Documentation

Showing up to 5 results
|